AMOS-3

Last updated on Aug. 7, 2020, 5:35 a.m. UTC

1 32794U 08022A   20219.81169050 -.00000047  00000-0  00000-0 0  9993
2 32794   0.0462 254.8712 0002923 231.1477 117.8329  1.00272011 60909
UTC
Height (km)
Latitude
Longitude
Inclination
Orbital Period
UTC large
Height (km)
Speed (km/s)
/
Latitude / Longitude
Inclination (degrees)
Orbital Period (minutes)
Azimuth
Elevation
Range (km)
Doppler Factor
iOS Compass Heading
iOS Angle

Next 30 passes for location: Hong Kong

Rise time Rise Azimuth (degrees) Set time Set Azimuth (degrees) Duration Max altitude (degrees)

No matching passes for this satellites